Time[GMT],significant_wave_height[m](0m),dominant_wave_period[s](0m)
2007-09-23 22:00, 0.41,2.7
2007-09-23 22:30, 0.40,2.3
2007-09-23 23:00, 0.55,8.0
2007-09-23 23:30, 0.53,8.0
2007-09-24 00:00, 0.33,2.1
2007-09-24 00:30, 0.47,8.0
2007-09-24 01:00, 0.25,2.0
2007-09-24 01:30, 0.23,2.0
2007-09-24 02:00, 0.20,1.9
2007-09-24 02:30, 0.18,1.8
2007-09-24 03:00, 0.17,1.8
2007-09-24 03:30, 0.11,1.8
2007-09-24 04:00, 0.17,1.6
2007-09-24 04:30, 0.28,2.1
2007-09-24 05:00, 0.28,2.1
2007-09-24 05:30, 0.22,2.1
2007-09-24 06:00, 0.23,2.1
2007-09-24 06:30, 0.23,2.1
2007-09-24 07:00, 0.17,2.3
2007-09-24 07:30, 0.43,8.0
2007-09-24 08:00, 0.19,2.7
2007-09-24 08:30, 0.18,2.5
2007-09-24 09:00, 0.17,2.3
2007-09-24 09:30, 0.16,2.1
2007-09-24 10:00, 0.37,10.7
2007-09-24 10:30,,
2007-09-24 11:00, 0.40,10.7
2007-09-24 11:30, 0.31,8.0
2007-09-24 12:00, 0.16,2.0
2007-09-24 12:30, 0.29,8.0
2007-09-24 13:00, 0.16,2.0
2007-09-24 13:30, 0.19,2.3
2007-09-24 14:00, 0.32,8.0
2007-09-24 14:30, 0.17,2.1
2007-09-24 15:00, 0.17,2.1
2007-09-24 15:30, 0.12,1.9
2007-09-24 16:00, 0.31,10.7
2007-09-24 16:30, 0.28,10.7
2007-09-24 17:00,,
2007-09-24 17:30, 0.12,1.6
2007-09-24 18:00, 0.18,1.9
2007-09-24 18:30, 0.19,1.9
2007-09-24 19:00, 0.37,10.7
2007-09-24 19:30, 0.22,2.1
2007-09-24 20:00, 0.23,2.1
2007-09-24 20:30, 0.24,2.5
2007-09-24 21:00, 0.22,2.1
2007-09-24 21:30, 0.23,2.3
2007-09-24 22:00, 0.33,8.0
2007-09-24 22:30, 0.19,2.3
2007-09-24 23:00, 0.19,2.1
2007-09-24 23:30, 0.18,2.5
2007-09-25 00:00, 0.21,2.3
2007-09-25 00:30, 0.17,2.3
2007-09-25 01:00, 0.18,2.5
2007-09-25 01:30, 0.19,2.7
2007-09-25 02:00, 0.22,3.2
2007-09-25 02:30, 0.27,2.9
2007-09-25 03:00, 0.25,3.2
2007-09-25 03:30, 0.44,10.7
2007-09-25 04:00,,
2007-09-25 04:30, 0.27,3.6
2007-09-25 05:00, 0.28,3.2
2007-09-25 05:30, 0.29,3.2
2007-09-25 06:00, 0.27,3.2
2007-09-25 06:30, 0.32,3.2
2007-09-25 07:00, 0.32,3.2
2007-09-25 07:30, 0.36,3.2
2007-09-25 08:00, 0.33,2.7
2007-09-25 08:30, 0.30,2.9
2007-09-25 09:00, 0.29,2.9
2007-09-25 09:30, 0.31,2.3
2007-09-25 10:00, 0.32,1.9
2007-09-25 10:30, 0.33,4.0
2007-09-25 11:00, 0.39,2.5
2007-09-25 11:30, 0.37,2.7
2007-09-25 12:00, 0.36,3.6
2007-09-25 12:30, 0.36,2.5
2007-09-25 13:00, 0.42,2.5
2007-09-25 13:30, 0.45,2.5
2007-09-25 14:00, 0.40,2.7
2007-09-25 14:30, 0.40,2.9
2007-09-25 15:00, 0.36,4.0
2007-09-25 15:30, 0.36,3.6
2007-09-25 16:00, 0.31,3.6
2007-09-25 16:30, 0.32,3.6
2007-09-25 17:00, 0.43,10.7
2007-09-25 17:30, 0.30,3.6
2007-09-25 18:00, 0.31,3.6
2007-09-25 18:30, 0.32,2.9
2007-09-25 19:00, 0.33,3.6
2007-09-25 19:30, 0.36,3.2
2007-09-25 20:00, 0.34,3.2
2007-09-25 20:30, 0.37,3.6
2007-09-25 21:00, 0.35,3.6
2007-09-25 21:30, 0.39,3.6
2007-09-25 22:00, 0.39,3.6
2007-09-25 22:30, 0.37,3.6
2007-09-25 23:00, 0.32,2.1
2007-09-25 23:30, 0.26,2.5
2007-09-26 00:00, 0.31,2.5
2007-09-26 00:30, 0.33,2.7
2007-09-26 01:00, 0.35,3.2
2007-09-26 01:30, 0.35,3.2
2007-09-26 02:00, 0.30,3.2
2007-09-26 02:30, 0.30,3.6
2007-09-26 03:00, 0.45,3.2
2007-09-26 03:30, 0.51,4.0
2007-09-26 04:00, 0.45,4.6
2007-09-26 04:30, 0.47,4.0
2007-09-26 05:00, 0.50,4.6
2007-09-26 05:30, 0.48,4.6
2007-09-26 06:00, 0.54,4.6
2007-09-26 06:30, 0.54,4.6
2007-09-26 07:00, 0.62,4.6
2007-09-26 07:30, 0.55,4.6
2007-09-26 08:00, 0.53,4.0
2007-09-26 08:30, 0.55,4.6
2007-09-26 09:00, 0.60,5.3
2007-09-26 09:30, 0.51,4.0
2007-09-26 10:00, 0.51,4.6
2007-09-26 10:30, 0.47,4.6
2007-09-26 11:00, 0.46,4.0
2007-09-26 11:30, 0.48,4.0
2007-09-26 12:00, 0.46,4.0
2007-09-26 12:30, 0.48,4.6
2007-09-26 13:00, 0.52,4.6
2007-09-26 13:30, 0.53,4.6
2007-09-26 14:00, 0.60,4.0
2007-09-26 14:30, 0.61,5.3
2007-09-26 15:00, 0.60,4.6
2007-09-26 15:30, 0.65,4.6
2007-09-26 16:00, 0.67,4.6
2007-09-26 16:30, 0.63,4.6
2007-09-26 17:00, 0.67,4.6
2007-09-26 17:30, 0.63,4.6
2007-09-26 18:00, 0.68,4.0
2007-09-26 18:30, 0.73,4.6
2007-09-26 19:00, 0.71,4.0
2007-09-26 19:30, 0.63,4.6
2007-09-26 20:00, 0.56,3.6
2007-09-26 20:30, 0.63,4.0
2007-09-26 21:00, 0.53,4.6
2007-09-26 21:30, 0.57,4.0
2007-09-26 22:00, 0.52,3.6
2007-09-26 22:30, 0.51,4.0
2007-09-26 23:00, 0.48,4.6
2007-09-26 23:30, 0.52,4.6
2007-09-27 00:00, 0.53,4.6
2007-09-27 00:30, 0.53,5.3
2007-09-27 01:00, 0.56,4.6
2007-09-27 01:30, 0.58,4.6
2007-09-27 02:00, 0.66,4.6
2007-09-27 02:30, 0.72,5.3
2007-09-27 03:00, 0.62,5.3
2007-09-27 03:30, 0.74,5.3
2007-09-27 04:00, 0.69,4.6
2007-09-27 04:30, 0.73,5.3
2007-09-27 05:00, 0.68,5.3
2007-09-27 05:30, 0.71,5.3
2007-09-27 06:00, 0.71,5.3
2007-09-27 06:30, 0.71,5.3
2007-09-27 07:00, 0.64,4.6
2007-09-27 07:30, 0.72,4.6
2007-09-27 08:00, 0.70,4.6
2007-09-27 08:30, 0.56,4.6
2007-09-27 09:00, 0.52,4.6
2007-09-27 09:30, 0.54,4.6
2007-09-27 10:00, 0.43,4.0
2007-09-27 10:30, 0.43,5.3
2007-09-27 11:00, 0.43,4.6
2007-09-27 11:30, 0.39,5.3
2007-09-27 12:00, 0.41,5.3
2007-09-27 12:30, 0.40,5.3
2007-09-27 13:00, 0.40,5.3
2007-09-27 13:30, 0.41,5.3
2007-09-27 14:00, 0.44,5.3
2007-09-27 14:30, 0.41,4.0
2007-09-27 15:00, 0.41,4.6
2007-09-27 15:30, 0.41,4.6
2007-09-27 16:00, 0.45,4.6
2007-09-27 16:30, 0.42,4.0
2007-09-27 17:00, 0.45,4.0
2007-09-27 17:30, 0.44,4.6
2007-09-27 18:00, 0.48,5.3
2007-09-27 18:30, 0.46,4.6
2007-09-27 19:00, 0.42,3.6
2007-09-27 19:30, 0.49,4.6
2007-09-27 20:00, 0.51,4.6
2007-09-27 20:30, 0.49,5.3
2007-09-27 21:00, 0.67,4.0
2007-09-27 21:30, 0.82,4.0
2007-09-27 22:00, 0.83,4.0
2007-09-27 22:30, 0.87,4.6
2007-09-27 23:00, 0.90,4.6
2007-09-27 23:30, 0.83,4.6
2007-09-28 00:00, 1.01,4.6
2007-09-28 00:30, 0.99,5.3
2007-09-28 01:00, 0.95,4.6
2007-09-28 01:30, 1.04,5.3
2007-09-28 02:00, 0.87,4.6
2007-09-28 02:30, 0.86,4.6
2007-09-28 03:00, 0.77,4.6
2007-09-28 03:30, 0.73,4.6
2007-09-28 04:00, 0.72,4.6
2007-09-28 04:30, 0.70,5.3
2007-09-28 05:00, 0.77,4.6
2007-09-28 05:30, 0.72,4.6
2007-09-28 06:00, 0.64,4.6
2007-09-28 06:30, 0.59,4.6
2007-09-28 07:00, 0.60,4.6
2007-09-28 07:30, 0.62,4.6
2007-09-28 08:00, 0.52,4.6
2007-09-28 08:30, 0.51,4.6
2007-09-28 09:00, 0.57,4.6
2007-09-28 09:30, 0.54,4.6
2007-09-28 10:00, 0.60,4.6
2007-09-28 10:30, 0.52,4.6
2007-09-28 11:00, 0.56,4.6
2007-09-28 11:30, 0.47,4.6
2007-09-28 12:00, 0.44,4.6
2007-09-28 12:30, 0.43,4.6
2007-09-28 13:00, 0.43,4.6
2007-09-28 13:30, 0.43,4.0
2007-09-28 14:00, 0.43,4.6
2007-09-28 14:30, 0.44,4.6
2007-09-28 15:00, 0.49,4.6
2007-09-28 15:30, 0.45,4.6
2007-09-28 16:00, 0.40,4.6
2007-09-28 16:30, 0.40,4.0
2007-09-28 17:00, 0.45,4.6
2007-09-28 17:30, 0.38,4.0
2007-09-28 18:00, 0.40,4.6
2007-09-28 18:30, 0.37,4.6
2007-09-28 19:00, 0.40,4.6
2007-09-28 19:30, 0.47,2.3
2007-09-28 20:00, 0.49,2.5
2007-09-28 20:30, 0.42,2.3
2007-09-28 21:00, 0.40,2.3
2007-09-28 21:30, 0.44,2.3
2007-09-28 22:00, 0.40,5.3
2007-09-28 22:30, 0.43,5.3
2007-09-28 23:00, 0.41,5.3
2007-09-28 23:30, 0.55,5.3
2007-09-29 00:00, 0.41,5.3
2007-09-29 00:30, 0.56,10.7
2007-09-29 01:00, 0.67,10.7
2007-09-29 01:30, 0.88,10.7
2007-09-29 02:00, 1.00,8.0
2007-09-29 02:30, 1.29,8.0
2007-09-29 03:00, 1.21,10.7
2007-09-29 03:30, 1.33,10.7
2007-09-29 04:00, 1.21,10.7
2007-09-29 04:30, 1.08,10.7
2007-09-29 05:00, 1.14,10.7
2007-09-29 05:30, 1.08,10.7
2007-09-29 06:00, 0.91,8.0
2007-09-29 06:30, 1.32,10.7
2007-09-29 07:00, 1.13,10.7
2007-09-29 07:30, 1.18,10.7
2007-09-29 08:00, 0.99,10.7
2007-09-29 08:30, 0.96,10.7
2007-09-29 09:00, 1.30,8.0
2007-09-29 09:30, 1.08,8.0
2007-09-29 10:00, 1.15,8.0
2007-09-29 10:30, 1.07,8.0
2007-09-29 11:00, 1.07,8.0
2007-09-29 11:30, 1.18,8.0
2007-09-29 12:00, 1.04,8.0
2007-09-29 12:30, 1.37,8.0
2007-09-29 13:00, 1.03,8.0
2007-09-29 13:30, 1.37,8.0
2007-09-29 14:00, 1.34,10.7
2007-09-29 14:30, 1.25,10.7
2007-09-29 15:00, 1.21,8.0
2007-09-29 15:30, 1.21,8.0
2007-09-29 16:00, 1.11,8.0
2007-09-29 16:30, 1.13,8.0
2007-09-29 17:00, 1.03,8.0
2007-09-29 17:30, 1.03,8.0
2007-09-29 18:00, 1.03,10.7
2007-09-29 18:30, 0.92,8.0
2007-09-29 19:00, 0.91,8.0
2007-09-29 19:30, 0.96,8.0
2007-09-29 20:00, 0.98,8.0
2007-09-29 20:30, 0.88,8.0
2007-09-29 21:00, 0.90,8.0
2007-09-29 21:30, 0.76,8.0
2007-09-29 22:00, 0.81,8.0
2007-09-29 22:30, 0.93,8.0
2007-09-29 23:00, 1.01,8.0
2007-09-29 23:30, 0.95,8.0
2007-09-30 00:00, 0.79,8.0
2007-09-30 00:30, 0.87,8.0
2007-09-30 01:00, 0.86,8.0
2007-09-30 01:30, 0.84,8.0
2007-09-30 02:00, 0.84,8.0
2007-09-30 02:30, 0.79,10.7
2007-09-30 03:00, 0.69,8.0
2007-09-30 03:30, 0.65,8.0
2007-09-30 04:00, 0.65,10.7
2007-09-30 04:30, 0.64,10.7
2007-09-30 05:00, 0.65,10.7
2007-09-30 05:30,,
2007-09-30 06:00, 0.94,10.7
2007-09-30 06:30,,
2007-09-30 07:00, 0.67,4.6
2007-09-30 07:30, 0.79,4.0
2007-09-30 08:00, 0.72,4.6
2007-09-30 08:30, 0.71,4.0
2007-09-30 09:00, 0.73,4.0
2007-09-30 09:30, 0.70,4.0
2007-09-30 10:00, 0.71,4.0
2007-09-30 10:30, 0.83,4.0
2007-09-30 11:00, 0.81,4.0
2007-09-30 11:30, 0.66,4.0
2007-09-30 12:00, 0.68,4.0
2007-09-30 12:30, 0.78,8.0
2007-09-30 13:00, 0.82,4.6
2007-09-30 13:30, 0.88,4.6
2007-09-30 14:00, 0.91,8.0
2007-09-30 14:30, 0.86,4.6
2007-09-30 15:00, 0.80,8.0
2007-09-30 15:30, 0.79,6.4
2007-09-30 16:00, 0.77,8.0
2007-09-30 16:30, 0.75,8.0
2007-09-30 17:00, 0.62,4.0
2007-09-30 17:30, 0.68,8.0
2007-09-30 18:00, 0.64,4.6
2007-09-30 18:30, 0.69,4.6
2007-09-30 19:00, 0.61,4.6
2007-09-30 19:30, 0.62,5.3
2007-09-30 20:00, 0.61,5.3
2007-09-30 20:30, 0.67,4.6
2007-09-30 21:00, 0.59,4.6
2007-09-30 21:30, 0.62,5.3
2007-09-30 22:00, 0.49,4.6
2007-09-30 22:30, 0.56,5.3
2007-09-30 23:00, 0.47,5.3
2007-09-30 23:30, 0.45,5.3
2007-10-01 00:00, 0.41,5.3
2007-10-01 00:30, 0.42,4.6
2007-10-01 01:00, 0.51,8.0
2007-10-01 01:30, 0.42,4.6
2007-10-01 02:00, 0.55,4.6
2007-10-01 02:30, 0.42,5.3
2007-10-01 03:00, 0.50,8.0
2007-10-01 03:30, 0.52,8.0
2007-10-01 04:00, 0.41,4.0
2007-10-01 04:30, 0.50,8.0
2007-10-01 05:00, 0.43,5.3
2007-10-01 05:30, 0.46,5.3
2007-10-01 06:00, 0.42,5.3
2007-10-01 06:30, 0.49,4.6
2007-10-01 07:00, 0.43,4.6
2007-10-01 07:30, 0.52,8.0
2007-10-01 08:00, 0.44,5.3
2007-10-01 08:30, 0.48,5.3
2007-10-01 09:00, 0.43,5.3
2007-10-01 09:30, 0.39,5.3
2007-10-01 10:00, 0.41,4.6
2007-10-01 10:30, 0.40,4.6
2007-10-01 11:00, 0.36,2.9
2007-10-01 11:30, 0.40,4.6
2007-10-01 12:00, 0.35,4.6
2007-10-01 12:30, 0.36,4.6
2007-10-01 13:00, 0.44,8.0
2007-10-01 13:30, 0.41,8.0
2007-10-01 14:00, 0.35,4.6
2007-10-01 14:30, 0.30,4.0
2007-10-01 15:00, 0.33,4.0
2007-10-01 15:30, 0.42,8.0
2007-10-01 16:00, 0.42,8.0
2007-10-01 16:30, 0.32,4.0
2007-10-01 17:00, 0.33,4.0
2007-10-01 17:30, 0.34,2.9
2007-10-01 18:00, 0.43,2.9
2007-10-01 18:30, 0.44,6.4
2007-10-01 19:00, 0.42,3.2
2007-10-01 19:30, 0.53,2.9
2007-10-01 20:00, 0.48,3.2
2007-10-01 20:30, 0.56,3.2
2007-10-01 21:00, 0.53,3.2
2007-10-01 21:30, 0.54,3.6
2007-10-01 22:00, 0.68,3.6
2007-10-01 22:30, 0.69,3.6
2007-10-01 23:00, 0.66,3.6
2007-10-01 23:30, 0.67,3.6
2007-10-02 00:00, 0.70,3.6
2007-10-02 00:30, 0.79,4.0
2007-10-02 01:00, 0.69,3.6
2007-10-02 01:30, 0.76,3.6
2007-10-02 02:00, 0.81,4.0
2007-10-02 02:30, 0.76,4.0
2007-10-02 03:00, 0.80,4.0
2007-10-02 03:30, 0.70,4.0
2007-10-02 04:00, 0.74,4.0
2007-10-02 04:30, 0.71,4.6
2007-10-02 05:00, 0.63,4.0
2007-10-02 05:30, 0.59,4.6
2007-10-02 06:00, 0.58,4.6
2007-10-02 06:30, 0.61,4.6
2007-10-02 07:00, 0.55,4.6
2007-10-02 07:30, 0.53,4.0
2007-10-02 08:00, 0.53,4.6
2007-10-02 08:30, 0.54,4.6
2007-10-02 09:00, 0.53,4.0
2007-10-02 09:30, 0.43,4.0
2007-10-02 10:00, 0.48,4.0
2007-10-02 10:30, 0.68,10.7
2007-10-02 11:00, 0.54,4.0
2007-10-02 11:30, 0.67,10.7
2007-10-02 12:00, 0.63,10.7
2007-10-02 12:30,,
2007-10-02 13:00, 0.40,3.6
2007-10-02 13:30, 0.40,3.2
2007-10-02 14:00, 0.39,3.6
2007-10-02 14:30, 0.61,10.7
2007-10-02 15:00, 0.34,4.0
2007-10-02 15:30, 0.33,3.6
2007-10-02 16:00, 0.56,10.7
2007-10-02 16:30, 0.48,10.7
2007-10-02 17:00, 0.48,10.7
2007-10-02 17:30, 0.61,10.7
2007-10-02 18:00, 0.56,10.7
2007-10-02 18:30, 0.52,10.7
2007-10-02 19:00,,
2007-10-02 19:30, 0.56,10.7
2007-10-02 20:00, 0.45,6.4
2007-10-02 20:30, 0.54,10.7
2007-10-02 21:00, 0.58,10.7
2007-10-02 21:30, 0.56,10.7
2007-10-02 22:00,,
2007-10-02 22:30, 0.71,10.7
2007-10-02 23:00, 0.78,10.7
2007-10-02 23:30, 0.62,8.0
2007-10-03 00:00, 0.77,10.7
2007-10-03 00:30,,
2007-10-03 01:00,,
2007-10-03 01:30, 0.82,10.7
2007-10-03 02:00, 0.74,10.7
2007-10-03 02:30, 0.66,8.0
2007-10-03 03:00, 0.73,10.7
2007-10-03 03:30, 0.71,10.7
2007-10-03 04:00, 0.77,10.7
2007-10-03 04:30,,
2007-10-03 05:00, 0.74,10.7
2007-10-03 05:30, 0.70,10.7
2007-10-03 06:00, 0.74,8.0
2007-10-03 06:30, 0.68,10.7
2007-10-03 07:00, 0.82,10.7
2007-10-03 07:30, 0.77,10.7
2007-10-03 08:00, 0.76,10.7
2007-10-03 08:30, 0.71,10.7
2007-10-03 09:00, 0.76,10.7
2007-10-03 09:30, 0.73,10.7
2007-10-03 10:00, 0.82,10.7
2007-10-03 10:30, 0.69,10.7
2007-10-03 11:00, 0.77,10.7
2007-10-03 11:30, 0.71,10.7
2007-10-03 12:00, 0.78,10.7
2007-10-03 12:30, 0.81,8.0
2007-10-03 13:00, 0.76,10.7
2007-10-03 13:30, 0.71,8.0
2007-10-03 14:00, 0.69,8.0
2007-10-03 14:30, 0.82,8.0
2007-10-03 15:00, 0.72,8.0
2007-10-03 15:30, 0.73,8.0
2007-10-03 16:00, 0.78,10.7
2007-10-03 16:30, 0.80,8.0
2007-10-03 17:00, 0.81,8.0
2007-10-03 17:30, 0.83,8.0
2007-10-03 18:00, 0.71,10.7
2007-10-03 18:30, 0.83,6.4
2007-10-03 19:00, 0.75,8.0
2007-10-03 19:30, 0.72,8.0
2007-10-03 20:00, 0.79,6.4
2007-10-03 20:30, 0.80,10.7
2007-10-03 21:00, 0.88,6.4
2007-10-03 21:30, 0.81,10.7
2007-10-03 22:00, 0.70,8.0
2007-10-03 22:30, 0.74,10.7
2007-10-03 23:00, 0.72,8.0
2007-10-03 23:30, 0.75,10.7
2007-10-04 00:00, 0.85,10.7
2007-10-04 00:30, 0.89,10.7
2007-10-04 01:00, 0.95,10.7
2007-10-04 01:30, 1.00,10.7
2007-10-04 02:00, 0.87,8.0
2007-10-04 02:30, 1.01,10.7
2007-10-04 03:00, 0.88,8.0
2007-10-04 03:30, 0.89,8.0
2007-10-04 04:00, 0.82,8.0
2007-10-04 04:30, 0.87,8.0
2007-10-04 05:00, 0.85,8.0
2007-10-04 05:30, 0.78,8.0
2007-10-04 06:00, 0.99,8.0
2007-10-04 06:30, 0.95,10.7
2007-10-04 07:00, 0.93,10.7
2007-10-04 07:30, 0.91,8.0
2007-10-04 08:00, 1.01,8.0
2007-10-04 08:30, 1.01,8.0
2007-10-04 09:00, 0.81,8.0
2007-10-04 09:30, 0.85,8.0
2007-10-04 10:00, 0.86,10.7
2007-10-04 10:30, 0.83,10.7
2007-10-04 11:00, 0.89,10.7
2007-10-04 11:30, 1.01,8.0
2007-10-04 12:00, 0.93,10.7
2007-10-04 12:30, 0.85,8.0
2007-10-04 13:00, 0.82,8.0
2007-10-04 13:30, 0.80,10.7
2007-10-04 14:00, 0.77,8.0
2007-10-04 14:30, 0.70,8.0
2007-10-04 15:00, 0.81,8.0
2007-10-04 15:30, 0.79,10.7
2007-10-04 16:00, 0.67,10.7
2007-10-04 16:30, 0.76,8.0
2007-10-04 17:00, 0.80,8.0
2007-10-04 17:30, 0.71,8.0
2007-10-04 18:00, 0.78,10.7
2007-10-04 18:30, 0.75,8.0
2007-10-04 19:00, 0.72,8.0
2007-10-04 19:30, 0.70,8.0
2007-10-04 20:00, 0.73,8.0
2007-10-04 20:30, 0.79,10.7
2007-10-04 21:00, 0.79,10.7
2007-10-04 21:30, 0.68,8.0
2007-10-04 22:00, 0.70,8.0
2007-10-04 22:30, 0.72,6.4
2007-10-04 23:00, 0.69,8.0
2007-10-04 23:30, 0.70,8.0
2007-10-05 00:00, 0.73,8.0
2007-10-05 00:30, 0.65,8.0
2007-10-05 01:00, 0.59,8.0
2007-10-05 01:30, 0.68,8.0
2007-10-05 02:00, 0.70,8.0
2007-10-05 02:30, 0.64,8.0
2007-10-05 03:00, 0.71,8.0
2007-10-05 03:30, 0.67,8.0
2007-10-05 04:00, 0.69,8.0
2007-10-05 04:30, 0.69,8.0
2007-10-05 05:00, 0.68,8.0
2007-10-05 05:30, 0.65,8.0
2007-10-05 06:00, 0.70,8.0
2007-10-05 06:30, 0.76,8.0
2007-10-05 07:00, 0.82,10.7
2007-10-05 07:30, 0.69,8.0
2007-10-05 08:00, 0.71,8.0
2007-10-05 08:30, 0.81,8.0
2007-10-05 09:00, 0.80,10.7
2007-10-05 09:30, 0.70,8.0
2007-10-05 10:00, 0.67,10.7
2007-10-05 10:30, 0.69,8.0
2007-10-05 11:00, 0.65,8.0
2007-10-05 11:30, 0.69,8.0
2007-10-05 12:00, 0.59,8.0
2007-10-05 12:30, 0.72,8.0
2007-10-05 13:00, 0.56,8.0
2007-10-05 13:30, 0.59,8.0
2007-10-05 14:00, 0.68,8.0
2007-10-05 14:30, 0.58,8.0
2007-10-05 15:00, 0.57,8.0
2007-10-05 15:30, 0.55,8.0
2007-10-05 16:00, 0.57,8.0
2007-10-05 16:30, 0.57,8.0
2007-10-05 17:00, 0.64,8.0
2007-10-05 17:30, 0.62,8.0
2007-10-05 18:00, 0.65,8.0
2007-10-05 18:30, 0.64,8.0
2007-10-05 19:00, 0.63,8.0
2007-10-05 19:30, 0.73,8.0
2007-10-05 20:00, 0.69,8.0
2007-10-05 20:30, 0.61,8.0
2007-10-05 21:00, 0.64,8.0
2007-10-05 21:30, 0.75,8.0
2007-10-05 22:00, 0.56,6.4
2007-10-05 22:30, 0.61,8.0
2007-10-05 23:00, 0.22,2.5
2007-10-05 23:30, 0.63,8.0
2007-10-06 00:00, 0.70,8.0
2007-10-06 00:30, 0.69,10.7
2007-10-06 01:00, 0.59,8.0
2007-10-06 01:30, 0.65,8.0
2007-10-06 02:00, 0.65,8.0
2007-10-06 02:30, 0.53,8.0
2007-10-06 03:00, 0.52,10.7
2007-10-06 03:30, 0.55,8.0
2007-10-06 04:00, 0.52,8.0
2007-10-06 04:30, 0.57,8.0
2007-10-06 05:00, 0.56,8.0
2007-10-06 05:30, 0.58,8.0
2007-10-06 06:00, 0.55,8.0
2007-10-06 06:30, 0.64,8.0
2007-10-06 07:00, 0.56,8.0
2007-10-06 07:30, 0.62,8.0
2007-10-06 08:00, 0.67,8.0
2007-10-06 08:30, 0.51,8.0
2007-10-06 09:00, 0.63,8.0
2007-10-06 09:30, 0.60,8.0
2007-10-06 10:00, 0.56,8.0
2007-10-06 10:30, 0.60,8.0
2007-10-06 11:00, 0.55,8.0
2007-10-06 11:30, 0.66,8.0
2007-10-06 12:00, 0.60,8.0
2007-10-06 12:30, 0.56,8.0
2007-10-06 13:00, 0.50,8.0
2007-10-06 13:30, 0.51,8.0
2007-10-06 14:00, 0.53,8.0
2007-10-06 14:30, 0.56,8.0
2007-10-06 15:00, 0.60,8.0
2007-10-06 15:30, 0.42,8.0
2007-10-06 16:00, 0.48,8.0
2007-10-06 16:30, 0.56,8.0
2007-10-06 17:00, 0.42,8.0
2007-10-06 17:30, 0.51,8.0
2007-10-06 18:00, 0.58,8.0
2007-10-06 18:30, 0.48,8.0
2007-10-06 19:00, 0.61,8.0
2007-10-06 19:30, 0.61,8.0
2007-10-06 20:00, 0.57,10.7
2007-10-06 20:30, 0.64,8.0
2007-10-06 21:00, 0.64,8.0
2007-10-06 21:30, 0.57,8.0
2007-10-06 22:00, 0.63,8.0
2007-10-06 22:30, 0.57,8.0
2007-10-06 23:00, 0.57,6.4
2007-10-06 23:30, 0.56,8.0
2007-10-07 00:00, 0.53,8.0
2007-10-07 00:30, 0.48,8.0
2007-10-07 01:00, 0.52,8.0
2007-10-07 01:30, 0.44,6.4
2007-10-07 02:00, 0.49,8.0
2007-10-07 02:30, 0.54,8.0
2007-10-07 03:00, 0.27,3.2
2007-10-07 03:30, 0.51,8.0
2007-10-07 04:00, 0.60,10.7
2007-10-07 04:30, 0.53,10.7
2007-10-07 05:00, 0.46,8.0
2007-10-07 05:30, 0.47,8.0
2007-10-07 06:00, 0.44,8.0
2007-10-07 06:30, 0.58,8.0
2007-10-07 07:00, 0.61,8.0
2007-10-07 07:30, 0.47,2.5
2007-10-07 08:00, 0.67,8.0
2007-10-07 08:30, 0.57,2.7
2007-10-07 09:00, 0.72,3.2
2007-10-07 09:30, 0.87,3.6
2007-10-07 10:00, 1.02,4.0
2007-10-07 10:30, 1.36,4.0
2007-10-07 11:00, 1.40,4.6
2007-10-07 11:30, 1.45,4.6
2007-10-07 12:00, 1.53,4.6
2007-10-07 12:30, 1.42,4.6
2007-10-07 13:00, 1.50,5.3
2007-10-07 13:30, 1.33,5.3
2007-10-07 14:00, 1.38,5.3
2007-10-07 14:30, 1.17,5.3
2007-10-07 15:00, 1.16,4.6
2007-10-07 15:30, 1.05,5.3
2007-10-07 16:00, 1.02,5.3
2007-10-07 16:30, 1.01,4.6
2007-10-07 17:00, 0.88,4.6
2007-10-07 17:30, 0.94,5.3
2007-10-07 18:00, 0.86,5.3
2007-10-07 18:30, 0.83,5.3
2007-10-07 19:00, 0.75,5.3
2007-10-07 19:30, 0.81,5.3
2007-10-07 20:00, 0.78,5.3
2007-10-07 20:30, 0.80,5.3
2007-10-07 21:00, 0.71,5.3
2007-10-07 21:30, 0.83,5.3
2007-10-07 22:00, 0.78,5.3
2007-10-07 22:30, 0.83,5.3
2007-10-07 23:00, 0.76,5.3
2007-10-07 23:30, 0.82,5.3
2007-10-08 00:00, 0.77,5.3
2007-10-08 00:30, 0.74,5.3
2007-10-08 01:00, 0.65,5.3
2007-10-08 01:30, 0.71,5.3
2007-10-08 02:00, 0.61,4.6
2007-10-08 02:30, 0.73,5.3
2007-10-08 03:00, 0.62,5.3
2007-10-08 03:30, 0.60,5.3
2007-10-08 04:00, 0.55,5.3
2007-10-08 04:30, 0.50,4.0
2007-10-08 05:00, 0.46,4.6
2007-10-08 05:30, 0.43,5.3
2007-10-08 06:00, 0.47,4.6
2007-10-08 06:30, 0.40,2.7
2007-10-08 07:00, 0.45,2.7
2007-10-08 07:30, 0.41,2.9
2007-10-08 08:00, 0.37,2.9
2007-10-08 08:30, 0.46,2.9
2007-10-08 09:00, 0.41,3.2
2007-10-08 09:30, 0.45,3.2
2007-10-08 10:00, 0.43,2.9
2007-10-08 10:30, 0.54,3.2
2007-10-08 11:00, 0.58,2.5
2007-10-08 11:30, 0.54,3.2
2007-10-08 12:00, 0.53,3.2
2007-10-08 12:30, 0.55,3.2
2007-10-08 13:00, 0.58,2.9
2007-10-08 13:30, 0.69,3.6
2007-10-08 14:00, 0.67,3.6
2007-10-08 14:30, 0.66,3.6
2007-10-08 15:00, 0.67,3.6
2007-10-08 15:30, 0.65,3.6
2007-10-08 16:00, 0.69,4.0
2007-10-08 16:30, 0.60,4.0
2007-10-08 17:00, 0.63,3.6
2007-10-08 17:30, 0.66,4.0
2007-10-08 18:00, 0.64,4.6
2007-10-08 18:30, 0.65,4.0
2007-10-08 19:00, 0.54,4.6
2007-10-08 19:30, 0.55,4.6
2007-10-08 20:00, 0.54,4.0
2007-10-08 20:30, 0.64,4.6
2007-10-08 21:00, 0.61,4.6
2007-10-08 21:30, 0.53,4.0
2007-10-08 22:00, 0.56,4.6
2007-10-08 22:30, 0.61,4.6
2007-10-08 23:00, 0.57,4.6
2007-10-08 23:30, 0.62,4.6
2007-10-09 00:00, 0.62,4.6
2007-10-09 00:30, 0.63,4.6
2007-10-09 01:00, 0.65,4.6
2007-10-09 01:30, 0.60,4.6
2007-10-09 02:00, 0.56,4.6
2007-10-09 02:30, 0.55,4.0
2007-10-09 03:00, 0.53,4.6
2007-10-09 03:30, 0.57,4.0
2007-10-09 04:00, 0.54,5.3
2007-10-09 04:30, 0.59,5.3
2007-10-09 05:00, 0.47,4.0
2007-10-09 05:30, 0.40,5.3
2007-10-09 06:00, 0.52,5.3
2007-10-09 06:30, 0.47,5.3
2007-10-09 07:00, 0.42,4.6
2007-10-09 07:30, 0.43,4.6
2007-10-09 08:00, 0.50,2.3
2007-10-09 08:30, 0.64,2.7
2007-10-09 09:00, 0.70,3.2
2007-10-09 09:30, 0.70,3.2
2007-10-09 10:00, 0.78,4.0
2007-10-09 10:30, 0.71,4.0
2007-10-09 11:00, 0.72,4.0
2007-10-09 11:30, 0.74,4.0
2007-10-09 12:00, 0.79,4.0
2007-10-09 12:30, 0.82,4.0
2007-10-09 13:00, 0.91,4.0
2007-10-09 13:30, 1.04,4.6
2007-10-09 14:00, 1.11,4.0
2007-10-09 14:30, 1.00,4.6
2007-10-09 15:00, 1.06,4.6
2007-10-09 15:30, 0.87,4.6
2007-10-09 16:00, 0.99,4.6
2007-10-09 16:30, 0.83,4.0
2007-10-09 17:00, 0.77,4.6
2007-10-09 17:30, 0.81,4.6
2007-10-09 18:00, 0.64,4.0
2007-10-09 18:30, 0.58,4.6
2007-10-09 19:00, 0.56,4.6
2007-10-09 19:30, 0.53,4.6
2007-10-09 20:00, 0.44,4.6
2007-10-09 20:30, 0.41,4.0
2007-10-09 21:00, 0.44,4.0
2007-10-09 21:30, 0.40,4.6
2007-10-09 22:00, 0.41,2.7
2007-10-09 22:30, 0.48,8.0
2007-10-09 23:00, 0.40,2.9
2007-10-09 23:30, 0.40,5.3
2007-10-10 00:00, 0.37,2.7
2007-10-10 00:30, 0.39,3.6
2007-10-10 01:00, 0.38,2.9
2007-10-10 01:30, 0.38,4.0
2007-10-10 02:00, 0.39,4.6
2007-10-10 02:30, 0.40,4.6
2007-10-10 03:00, 0.44,4.6
2007-10-10 03:30, 0.45,4.6
2007-10-10 04:00, 0.48,4.6
2007-10-10 04:30, 0.49,2.5
2007-10-10 05:00, 0.48,4.6
2007-10-10 05:30, 0.46,2.9
2007-10-10 06:00, 0.43,4.6
2007-10-10 06:30, 0.42,4.6
2007-10-10 07:00, 0.43,3.2
2007-10-10 07:30, 0.40,2.9
2007-10-10 08:00, 0.46,3.6
2007-10-10 08:30, 0.41,2.9
2007-10-10 09:00, 0.46,2.9
2007-10-10 09:30, 0.49,2.9
2007-10-10 10:00, 0.46,2.9
2007-10-10 10:30, 0.56,2.9
2007-10-10 11:00, 0.56,3.2
2007-10-10 11:30, 0.59,3.2
2007-10-10 12:00, 0.60,4.0
2007-10-10 12:30, 0.64,3.6
2007-10-10 13:00, 0.64,4.0
2007-10-10 13:30, 0.60,3.6
2007-10-10 14:00, 0.59,4.6
2007-10-10 14:30, 0.60,4.0
2007-10-10 15:00, 0.60,3.6
2007-10-10 15:30, 0.58,4.0
2007-10-10 16:00, 0.61,4.0
2007-10-10 16:30, 0.62,4.0
2007-10-10 17:00, 0.63,4.0
2007-10-10 17:30, 0.56,4.0
2007-10-10 18:00, 0.53,4.0
2007-10-10 18:30, 0.52,4.0
2007-10-10 19:00, 0.53,4.0
2007-10-10 19:30, 0.41,4.0
2007-10-10 20:00, 0.56,4.6
2007-10-10 20:30, 0.46,4.6
2007-10-10 21:00, 0.47,4.0
2007-10-10 21:30, 0.46,4.0
2007-10-10 22:00, 0.45,4.6
2007-10-10 22:30, 0.49,4.6
2007-10-10 23:00, 0.46,4.6
2007-10-10 23:30, 0.48,6.4
2007-10-11 00:00, 0.47,4.0
2007-10-11 00:30, 0.50,4.6
2007-10-11 01:00, 0.59,4.6
2007-10-11 01:30, 0.67,4.6
2007-10-11 02:00, 0.74,5.3
2007-10-11 02:30, 0.77,5.3
2007-10-11 03:00, 0.75,4.6
2007-10-11 03:30, 0.72,5.3
2007-10-11 04:00, 0.76,4.6
2007-10-11 04:30, 0.72,4.6
2007-10-11 05:00, 0.76,4.6
2007-10-11 05:30, 0.71,4.6
2007-10-11 06:00, 0.72,4.6
2007-10-11 06:30, 0.65,5.3
2007-10-11 07:00, 0.62,4.0
2007-10-11 07:30, 0.64,6.4
2007-10-11 08:00, 0.66,5.3
2007-10-11 08:30, 0.63,5.3
2007-10-11 09:00, 0.63,5.3
2007-10-11 09:30, 0.68,5.3
2007-10-11 10:00, 0.69,4.0
2007-10-11 10:30, 0.73,4.0
2007-10-11 11:00, 0.80,3.2
2007-10-11 11:30, 0.89,3.6
2007-10-11 12:00, 0.81,3.6
2007-10-11 12:30, 0.88,4.6
2007-10-11 13:00, 0.87,4.0
2007-10-11 13:30, 1.02,4.6
2007-10-11 14:00, 0.98,4.6
2007-10-11 14:30, 1.01,4.6
2007-10-11 15:00, 1.00,4.0
2007-10-11 15:30, 0.97,4.6
2007-10-11 16:00, 0.98,4.6
2007-10-11 16:30, 1.03,4.6